Zurück zum Katalog

STARLINK-33908

AktivKommunikationVLEO
NORAD 63700·PAYLOAD·🇺🇸 United States

Gestartet Apr 28, 2025 von Vandenberg Space Force Base

Loading…

Nächste Überflüge (nächste 24 Stunden)

TLE

AktuellSource: CelesTrak SupGP

Epoche: Sep 14, 2026, 22:56 UTC

1 63700C 25087D   26257.95604167  .00030750  00000+0  90881-3 0  2578
2 63700  53.1596  59.8292 0001028  86.1717 348.6434 15.34365258    18

Verfolge STARLINK-33908 in Echtzeit mit AllMySat

Download on the App Store